Starlink 3172

operational
NORAD ID: 51139 Int'l Des: 2022-005 Owner: SPXS Country: US Constellation: starlink
LEOCIRCULAR

About Starlink 3172

Description loading...

Live Position

Loading 3D Globe...

Upcoming Passes

Altitude History

Altitude vs Time

uPlot chart will show altitude changes over time

Two-Line Element Set

1 51139U 22005AM 26061.15875000 .00001872 00000-0 13565-3 0 9990
2 51139 53.2174 332.9419 0001388 91.2306 268.8845 15.08845746227601
Epoch: Mar 2, 2026 • Age: 27 hours

Current Status

Altitude 551.2 km
Velocity 7.59 km/s
Sub-Earth Point -34.39°S, 27.59°W
Launch Date Jan 19, 2022
Age 4.1 years
Type internet

Technical Details

Classification Payload
Mass 297.00 kg
Dry Mass 275.00 kg
Total Mass 297.00 kg
Length 0.20 m
Diameter 2.80 m
Span 9.00 m
Shape Box + pan
Manufacturer SPXS
Bus Type Starlink
Phase Status In Orbit
Owner/State SPXS/US

Large Constellations

Loading constellations...